Total_Precipitation_Accumulation
0.28 0.20 0.23 0.22 0.17 0.16 0.17 0.22 0.24 0.23 0.21 0.20 0.20 0.20 0.22 0.24 0.23 0.22 0.23 0.29 0.31 0.34 0.37 0.43 0.47 0.47 0.50 0.51 0.47 0.46 0.49 0.54 0.66 0.72 0.77 0.78 0.83 0.85 0.91 0.99 1.10 0.96 0.89
0.23 0.20 0.18 0.15 0.14 0.15 0.15 0.20 0.23 0.23 0.23 0.25 0.25 0.25 0.26 0.23 0.20 0.20 0.21 0.28 0.39 0.40 0.38 0.40 0.42 0.40 0.43 0.41 0.40 0.42 0.44 0.51 0.63 0.75 0.88 0.92 0.99 0.99 1.03 1.04 1.19 1.30 1.02
0.26 0.28 0.16 0.15 0.15 0.14 0.15 0.20 0.22 0.20 0.22 0.23 0.25 0.25 0.23 0.21 0.22 0.24 0.24 0.30 0.39 0.42 0.41 0.36 0.35 0.38 0.40 0.40 0.37 0.39 0.44 0.55 0.70 0.91 1.26 1.19 1.04 1.05 1.12 1.13 1.02 0.96 0.81
0.24 0.24 0.17 0.18 0.20 0.18 0.17 0.21 0.27 0.24 0.23 0.23 0.24 0.23 0.23 0.23 0.26 0.29 0.30 0.33 0.39 0.45 0.48 0.47 0.44 0.41 0.41 0.41 0.39 0.39 0.45 0.57 0.82 1.11 1.71 1.57 1.28 1.44 1.44 1.25 1.01 0.87 0.75
0.21 0.20 0.23 0.25 0.26 0.26 0.23 0.21 0.27 0.28 0.28 0.28 0.29 0.26 0.28 0.30 0.30 0.32 0.36 0.39 0.42 0.48 0.55 0.59 0.57 0.49 0.45 0.45 0.45 0.47 0.56 0.70 0.97 1.36 1.96 1.90 1.82 1.91 1.58 1.25 1.05 0.95 0.85
0.25 0.19 0.23 0.29 0.28 0.29 0.27 0.26 0.26 0.28 0.31 0.34 0.35 0.34 0.34 0.35 0.35 0.36 0.41 0.46 0.50 0.53 0.58 0.63 0.64 0.57 0.51 0.50 0.54 0.60 0.69 0.87 1.06 1.44 2.07 2.05 1.95 1.94 1.60 1.36 1.13 1.00 0.91
0.43 0.36 0.29 0.29 0.28 0.28 0.29 0.34 0.36 0.33 0.34 0.38 0.38 0.37 0.39 0.40 0.40 0.43 0.46 0.49 0.54 0.56 0.57 0.55 0.55 0.52 0.52 0.55 0.57 0.62 0.79 1.07 1.26 1.79 2.15 2.11 2.21 1.92 1.62 1.53 1.36 1.17 0.96
0.57 0.51 0.46 0.37 0.29 0.33 0.38 0.38 0.44 0.48 0.47 0.45 0.44 0.45 0.48 0.47 0.46 0.49 0.52 0.56 0.63 0.70 0.70 0.61 0.57 0.54 0.53 0.55 0.56 0.64 0.80 0.96 1.07 1.67 2.10 2.07 1.93 1.74 1.69 1.62 1.44 1.24 1.05
0.74 0.75 0.72 0.52 0.45 0.48 0.53 0.52 0.56 0.58 0.55 0.54 0.55 0.58 0.59 0.59 0.59 0.58 0.59 0.64 0.69 0.73 0.73 0.70 0.70 0.66 0.64 0.61 0.61 0.69 0.81 1.05 1.22 1.48 1.61 1.99 1.87 1.94 1.87 1.63 1.38 1.18 1.07
1.05 1.06 0.99 0.93 0.86 0.76 0.77 0.79 0.75 0.75 0.69 0.60 0.57 0.62 0.63 0.61 0.60 0.65 0.62 0.69 0.75 0.77 0.75 0.80 0.90 0.90 0.84 0.73 0.70 0.76 0.89 1.00 0.94 1.27 1.83 1.88 1.85 2.08 2.12 1.79 1.51 1.30 1.15
1.39 1.35 1.16 1.18 1.16 1.05 1.01 0.92 0.95 0.94 0.88 0.78 0.69 0.71 0.69 0.78 0.88 0.88 0.82 0.94 1.00 1.05 1.09 1.11 1.10 1.08 1.10 0.98 0.91 0.95 0.97 0.88 1.06 1.53 1.99 1.81 1.92 2.18 2.29 2.07 1.75 1.53 1.37
1.55 1.46 1.40 1.29 1.22 1.18 1.07 1.12 1.20 1.15 1.13 0.97 1.02 1.01 1.03 1.36 1.54 1.33 1.42 1.46 1.44 1.44 1.41 1.37 1.33 1.33 1.24 0.99 1.02 1.09 0.88 0.94 1.33 1.79 1.77 1.72 1.96 2.30 2.55 2.35 1.99 1.72 1.63
1.86 1.65 1.71 1.62 1.49 1.63 1.67 1.55 1.55 1.55 1.59 1.40 1.50 1.58 1.64 1.80 1.82 1.80 1.90 1.76 1.72 1.67 1.63 1.74 1.55 1.30 1.24 1.19 1.13 1.13 1.03 1.05 1.26 1.50 1.61 1.75 2.03 2.44 2.71 2.52 2.23 2.04 1.99
2.37 2.13 2.04 2.08 1.99 2.07 2.29 2.09 1.88 1.76 1.79 1.78 1.89 1.85 2.14 2.24 2.21 2.18 2.26 2.16 2.13 2.10 2.14 2.03 1.92 1.70 1.59 1.46 1.31 1.31 1.30 1.25 1.31 1.52 1.68 1.77 1.94 2.37 2.75 2.71 2.51 2.27 2.21
2.58 2.51 2.25 2.29 2.37 2.55 2.74 2.53 2.30 2.33 2.12 2.05 2.24 2.24 2.40 2.48 2.48 2.56 2.45 2.41 2.27 2.24 2.21 2.11 2.03 2.04 1.95 1.77 1.53 1.50 1.57 1.49 1.51 1.67 1.73 1.81 1.90 2.19 2.64 2.91 2.82 2.63 2.59
2.51 2.63 2.70 2.62 2.67 2.62 2.74 2.71 2.46 2.33 2.42 2.29 2.29 2.35 2.37 2.51 2.74 2.81 2.76 2.69 2.61 2.53 2.57 2.41 2.21 2.39 2.24 2.14 1.93 1.85 1.80 1.84 1.80 1.87 2.05 2.08 1.93 1.97 2.30 2.71 2.94 2.96 2.99
2.41 2.46 2.62 2.69 2.81 2.79 2.80 2.83 2.68 2.51 2.51 2.60 2.67 2.73 2.59 2.55 2.82 2.92 3.06 2.97 2.89 2.83 2.85 2.79 2.67 2.73 2.50 2.37 2.19 2.08 2.06 2.14 2.14 2.06 2.20 2.34 2.14 2.12 2.13 2.28 2.54 2.79 3.01
2.04 2.23 2.43 2.62 2.75 3.02 3.14 3.24 3.08 3.14 3.13 3.07 2.92 2.88 2.76 2.76 2.97 3.25 3.31 3.24 3.25 3.14 3.19 3.30 3.24 3.05 2.90 2.72 2.51 2.21 2.13 2.27 2.30 2.27 2.30 2.42 2.55 2.39 2.29 2.18 2.27 2.45 2.75
1.84 2.22 2.52 2.79 3.07 3.28 3.52 3.75 3.71 3.79 3.65 3.51 3.42 3.30 3.33 3.46 3.49 3.64 3.72 3.72 3.69 3.69 3.66 3.50 3.67 3.49 3.40 3.20 2.79 2.52 2.26 2.20 2.27 2.21 2.29 2.29 2.42 2.45 2.47 2.36 2.28 2.35 2.59
2.01 2.35 2.69 2.95 3.39 3.84 3.92 4.08 4.09 4.28 4.24 4.19 4.25 4.12 3.95 4.03 4.11 4.24 4.17 4.19 4.19 4.22 4.06 4.01 4.03 3.81 3.59 3.54 3.10 2.82 2.57 2.30 2.29 2.28 2.27 2.37 2.32 2.17 2.25 2.35 2.48 2.30 2.48
2.62 2.76 2.97 3.19 3.48 3.68 4.02 4.34 4.53 4.66 4.83 4.86 4.84 4.86 4.88 4.89 5.00 5.03 4.83 4.79 4.69 4.57 4.37 4.27 4.11 3.89 3.64 3.61 3.49 3.06 2.49 2.14 2.09 2.00 2.05 2.25 2.27 2.16 2.18 2.24 2.31 2.26 2.14
3.01 3.06 3.27 3.57 3.83 3.98 4.37 4.86 5.25 5.38 5.46 5.49 5.47 5.60 5.68 5.71 5.85 5.87 5.81 5.59 5.41 5.14 4.66 4.29 4.12 3.90 3.55 3.65 3.64 3.57 2.90 2.43 1.99 1.63 1.73 1.81 1.89 2.05 2.01 1.96 2.07 2.22 2.14
2.98 3.09 3.27 3.70 4.10 4.51 4.99 5.54 5.95 6.15 6.18 6.07 5.80 5.88 6.00 5.91 5.98 6.12 6.07 5.85 5.53 4.98 4.43 4.25 4.18 4.03 3.81 3.73 3.61 3.74 3.24 2.72 2.31 1.84 1.61 1.52 1.62 1.72 1.72 1.74 1.80 1.92 1.91
2.86 3.08 3.28 3.66 4.27 4.74 5.10 5.74 6.34 6.59 6.79 6.89 6.66 6.35 6.11 5.87 5.75 5.69 5.52 5.11 4.72 4.36 4.06 3.92 3.95 3.81 3.79 3.63 3.54 3.27 3.04 2.76 2.50 2.10 1.71 1.51 1.52 1.55 1.56 1.53 1.58 1.78 1.86
2.75 2.84 3.07 3.59 4.16 4.81 5.43 5.96 6.50 6.92 7.15 7.10 6.68 6.24 5.73 5.37 4.95 4.57 4.25 4.02 3.94 3.74 3.52 3.39 3.36 3.26 3.11 3.02 3.03 3.01 2.96 2.72 2.39 2.16 1.88 1.67 1.65 1.52 1.52 1.60 1.66 1.73 1.82
2.40 2.60 2.92 3.34 4.00 4.67 5.25 5.84 6.30 6.67 6.73 6.40 5.87 5.35 5.01 4.65 4.18 3.70 3.44 3.23 3.10 2.92 2.71 2.58 2.55 2.57 2.65 2.70 2.75 2.75 2.71 2.68 2.53 2.44 2.22 1.96 1.84 1.76 1.68 1.65 1.71 1.80 1.95